Location: Flotzheim
(48.8375°N, 10.8136°E)
Time: 03:49:04
(UTC+00:00)

Cosmos 2263 Rocket - Pass Details

Date: 23 January 2021
Orbit: 825 x 847 km, 71.0° (Epoch: 26 February)

Event Time Altitude Azimuth Distance (km) Brightness Sun altitude
Rises 18:10:04 0° 261° (W) 3,403 6.9 -21.1°
Reaches altitude 10° 18:13:20 10° 280° (W) 2,468 5.7 -21.6°
Maximum altitude 18:17:09 18° 323° (NW) 1,952 4.4 -22.3°
Drops below altitude 10° 18:20:59 10° 6° (N) 2,466 4.5 -22.9°
Enters shadow 18:22:10 - 14° (NNE) 2,773 4.7 -23.1°
